VA3ZFM-10 Weather Reports


Display with metric or nautical units.
time (UTC)temp
F
wind
direction
speed
MPH
gust
MPH
rain 1hr
in
rain 24hr
in
rain mn
in
humidity
%
barometer
mb
20260510082934 39 225 1.0 6.0 0.00 0.00 0.00 84 1006.0
20260510082432 39 187 0.0 3.0 0.00 0.00 0.00 83 1006.1
20260510081931 39 171 0.0 2.0 0.00 0.00 0.00 83 1006.1
20260510081427 39 196 2.0 3.0 0.00 0.00 0.00 82 1006.0
20260510080924 39 225 0.0 3.0 0.00 0.00 0.00 81 1006.0
20260510080422 40 201 1.0 1.0 0.00 0.00 0.00 81 1006.0
20260510075920 40 233 0.0 2.0 0.00 0.00 0.00 81 1005.8
20260510075418 40 275 2.0 6.0 0.00 0.00 0.00 80 1005.7
20260510074914 40 246 0.0 3.0 0.00 0.00 0.00 79 1006.0
20260510074411 40 181 0.0 7.0 0.00 0.00 0.00 79 1005.9
20260510073908 41 90 1.0 4.0 0.00 0.00 0.00 78 1005.8
20260510073403 41 162 2.0 3.0 0.00 0.00 0.00 78 1005.7
20260510072859 41 245 3.0 8.0 0.00 0.00 0.00 77 1005.6
20260510072356 41 170 0.0 6.0 0.00 0.00 0.00 76 1005.4
20260510071852 42 139 1.0 7.0 0.00 0.00 0.00 76 1005.3
20260510071349 42 212 1.0 2.0 0.00 0.00 0.00 76 1005.4
20260510070848 42 138 1.0 2.0 0.00 0.00 0.00 75 1005.4
20260510070344 42 343 0.0 3.0 0.00 0.00 0.00 75 1005.3
20260510065838 42 163 0.0 4.0 0.00 0.00 0.00 75 1005.2
20260510065336 42 146 1.0 4.0 0.00 0.00 0.00 74 1005.0
20260510064832 43 231 1.0 6.0 0.00 0.00 0.00 75 1005.0
20260510064331 43 207 0.0 0.0 0.00 0.00 0.00 75 1004.7
20260510063826 43 240 1.0 4.0 0.00 0.00 0.00 75 1004.7
20260510063323 43 114 1.0 2.0 0.00 0.00 0.00 77 1004.7
20260510062819 43 268 1.0 2.0 0.00 0.00 0.00 78 1004.8
20260510062315 43 180 0.0 2.0 0.00 0.00 0.00 78 1004.5
20260510061810 43 122 0.0 2.0 0.00 0.00 0.00 78 1004.5
20260510061308 44 217 0.0 2.0 0.00 0.00 0.00 78 1004.7
20260510060804 44 65 1.0 3.0 0.00 0.00 0.00 79 1004.5
20260510060301 44 289 0.0 2.0 0.00 0.00 0.00 80 1004.7
20260510055758 44 119 1.0 2.0 0.00 0.00 0.00 81 1004.5
20260510055256 44 160 0.0 2.0 0.00 0.00 0.00 82 1004.6
20260510054755 44 191 0.0 2.0 0.00 0.00 0.00 81 1004.7
20260510054252 44 106 0.0 0.0 0.00 0.00 0.00 82 1004.4
20260510053752 44 85 0.0 1.0 0.00 0.00 0.00 82 1004.5
20260510053248 44 204 1.0 3.0 0.00 0.00 0.00 82 1004.4
20260510052744 45 159 0.0 1.0 0.00 0.00 0.00 81 1004.5
20260510052240 45 202 0.0 2.0 0.00 0.00 0.00 81 1004.5
20260510051736 45 213 1.0 2.0 0.00 0.00 0.00 81 1004.3
20260510051233 45 154 0.0 1.0 0.00 0.00 0.00 81 1004.3
20260510050729 45 184 0.0 3.0 0.00 0.00 0.00 81 1004.4
20260510050227 45 149 1.0 1.0 0.00 0.00 0.00 81 1004.4
20260510045724 45 207 1.0 2.0 0.00 0.00 0.00 80 1004.0
20260510045220 45 162 2.0 2.0 0.00 0.00 0.00 81 1003.9
20260510044716 46 152 0.0 1.0 0.00 0.00 0.00 81 1003.9
20260510044215 46 231 0.0 2.0 0.00 0.00 0.00 80 1004.2
20260510043709 46 191 1.0 3.0 0.00 0.00 0.00 80 1003.8
20260510043207 46 245 0.0 4.0 0.00 0.00 0.00 81 1003.9
20260510042704 47 218 1.0 10.0 0.00 0.00 0.00 80 1003.9
20260510042200 47 215 3.0 4.0 0.00 0.00 0.00 82 1003.8
20260510041657 47 191 1.0 3.0 0.00 0.00 0.00 82 1003.7
20260510041154 47 92 0.0 1.0 0.00 0.00 0.00 84 1003.6
20260510040651 47 102 0.0 1.0 0.00 0.00 0.00 84 1003.4
20260510040148 47 235 0.0 0.0 0.00 0.00 0.00 83 1003.4
20260510035643 48 226 1.0 1.0 0.00 0.00 0.00 83 1003.3
20260510035138 48 185 1.0 3.0 0.00 0.00 0.00 82 1003.3
20260510034636 48 134 1.0 2.0 0.00 0.00 0.00 82 1003.3
20260510034133 48 118 2.0 3.0 0.00 0.00 0.00 82 1003.3
20260510033629 49 226 0.0 3.0 0.00 0.00 0.00 82 1003.7
20260510033127 49 195 2.0 4.0 0.00 0.00 0.00 81 1003.7
20260510032623 49 138 0.0 4.0 0.00 0.00 0.00 81 1003.4
20260510032118 49 194 1.0 2.0 0.00 0.00 0.00 82 1003.4
20260510031613 49 145 2.0 2.0 0.00 0.00 0.00 82 1003.1
20260510031110 49 204 0.0 2.0 0.00 0.00 0.00 83 1003.0
20260510030605 50 135 1.0 3.0 0.00 0.00 0.00 82 1003.0
20260510030103 50 188 0.0 3.0 0.00 0.00 0.00 83 1003.1
20260510025600 50 180 0.0 2.0 0.00 0.00 0.00 83 1002.9
20260510025057 50 192 0.0 3.0 0.00 0.00 0.00 83 1002.7
20260510024554 50 208 1.0 2.0 0.00 0.00 0.00 83 1002.5
20260510024050 51 231 0.0 3.0 0.00 0.00 0.00 84 1002.8
20260510023546 51 207 0.0 2.0 0.00 0.00 0.00 84 1002.7
20260510023045 51 118 1.0 2.0 0.00 0.00 0.00 85 1002.5
20260510022544 51 167 1.0 3.0 0.00 0.00 0.00 85 1002.7
20260510022044 51 180 1.0 4.0 0.00 0.00 0.00 85 1002.7
20260510021540 51 177 0.0 7.0 0.00 0.00 0.00 84 1002.6
20260510021039 51 168 3.0 6.0 0.00 0.00 0.00 84 1002.5
20260510020538 51 161 3.0 6.0 0.00 0.00 0.00 85 1003.0
20260510020033 52 189 0.0 3.0 0.00 0.00 0.00 85 1002.8
20260510015530 52 142 1.0 6.0 0.00 0.00 0.00 85 1002.7
20260510015025 52 120 0.0 2.0 0.00 0.00 0.00 84 1002.5
20260510014522 52 149 0.0 1.0 0.00 0.00 0.00 84 1002.7
20260510014020 52 206 1.0 4.0 0.00 0.00 0.00 83 1002.5
20260510013515 52 150 1.0 2.0 0.00 0.00 0.00 83 1002.3
20260510013011 52 112 2.0 3.0 0.00 0.00 0.00 82 1002.4
20260510012510 52 209 1.0 4.0 0.00 0.00 0.00 82 1002.4
20260510012007 53 199 1.0 3.0 0.00 0.00 0.00 81 1002.1
20260510011501 53 188 5.0 7.0 0.00 0.00 0.00 81 1002.0
20260510010957 53 142 2.0 4.0 0.00 0.00 0.00 80 1001.9
20260510010454 53 165 1.0 8.0 0.00 0.00 0.00 79 1002.0
20260510005951 53 232 4.0 9.0 0.00 0.00 0.00 78 1001.9
20260510005447 53 151 4.0 13.0 0.00 0.00 0.00 77 1001.5
20260510004945 53 174 2.0 3.0 0.00 0.00 0.00 77 1001.6
20260510004442 53 200 2.0 8.0 0.00 0.00 0.00 76 1001.4
20260510003940 53 161 2.0 9.0 0.00 0.00 0.00 76 1001.3
20260510003437 53 153 1.0 7.0 0.00 0.00 0.00 76 1001.3
20260510002936 53 159 2.0 4.0 0.00 0.00 0.00 77 1001.5
20260510002433 54 197 4.0 6.0 0.00 0.00 0.00 76 1001.0
20260510001929 54 226 2.0 11.0 0.00 0.00 0.00 75 1000.9
20260510001427 54 171 6.0 9.0 0.00 0.00 0.00 76 1001.0
20260510000925 55 210 4.0 11.0 0.00 0.00 0.00 72 1000.9
20260510000421 55 156 3.0 7.0 0.00 0.00 0.00 72 1001.0
20260509235917 55 213 1.0 7.0 0.00 0.00 0.00 72 1001.0
20260509235414 55 152 1.0 10.0 0.00 0.00 0.00 70 1000.9
20260509234910 55 219 1.0 3.0 0.00 0.00 0.00 69 1000.9
20260509234408 55 182 1.0 10.0 0.00 0.00 0.00 68 1001.1
20260509233906 55 117 1.0 2.0 0.00 0.00 0.00 67 1001.1
20260509233403 55 233 4.0 4.0 0.00 0.00 0.00 65 1001.1
20260509232858 56 162 3.0 8.0 0.00 0.00 0.00 65 1001.1
20260509232356 56 144 3.0 6.0 0.00 0.00 0.00 64 1001.1
20260509231852 56 183 1.0 10.0 0.00 0.00 0.00 63 1000.9
20260509231349 56 188 2.0 3.0 0.00 0.00 0.00 63 1001.1
20260509230847 56 189 1.0 4.0 0.00 0.00 0.00 64 1001.1
20260509230344 56 164 4.0 7.0 0.00 0.00 0.00 64 1001.4
20260509225839 56 194 1.0 6.0 0.00 0.00 0.00 64 1001.3
20260509225336 56 201 5.0 9.0 0.00 0.00 0.00 65 1001.4
20260509224832 56 153 6.0 8.0 0.00 0.00 0.00 65 1001.6
20260509224328 56 143 2.0 7.0 0.00 0.00 0.00 62 1001.5
20260509223825 57 158 2.0 8.0 0.00 0.00 0.00 59 1001.6
20260509223321 57 195 2.0 8.0 0.00 0.00 0.00 59 1001.7
20260509222819 57 194 4.0 9.0 0.00 0.00 0.00 59 1001.7
20260509222314 57 192 2.0 4.0 0.00 0.00 0.00 60 1001.9
20260509221810 57 179 1.0 6.0 0.00 0.00 0.00 58 1001.6
20260509221308 57 150 4.0 13.0 0.00 0.00 0.00 57 1001.6
20260509220802 57 164 2.0 4.0 0.00 0.00 0.00 58 1001.4
20260509220259 58 218 4.0 11.0 0.00 0.00 0.00 58 1001.5
20260509215754 58 175 3.0 6.0 0.00 0.00 0.00 57 1001.8
20260509215251 58 173 1.0 3.0 0.00 0.00 0.00 57 1001.7
20260509214748 58 176 1.0 6.0 0.00 0.00 0.00 56 1001.7
20260509214245 58 152 2.0 10.0 0.00 0.00 0.00 56 1001.8
20260509213742 58 160 3.0 4.0 0.00 0.00 0.00 55 1001.6
20260509213237 58 150 4.0 11.0 0.00 0.00 0.00 54 1001.6
20260509212735 58 181 8.0 14.0 0.00 0.00 0.00 53 1001.5
20260509212232 58 161 2.0 7.0 0.00 0.00 0.00 52 1001.8
20260509211728 59 177 6.0 9.0 0.00 0.00 0.00 51 1001.9
20260509211225 59 153 6.0 10.0 0.00 0.00 0.00 49 1001.9
20260509210721 59 206 2.0 7.0 0.00 0.00 0.00 49 1001.5
20260509210219 60 168 3.0 7.0 0.00 0.00 0.00 47 1002.0
20260509205718 60 131 3.0 7.0 0.00 0.00 0.00 47 1001.6
20260509205218 60 191 3.0 8.0 0.00 0.00 0.00 46 1001.9
20260509204714 60 127 2.0 9.0 0.00 0.00 0.00 45 1001.9
20260509204211 60 165 2.0 10.0 0.00 0.00 0.00 45 1002.0
20260509203707 59 181 4.0 11.0 0.00 0.00 0.00 44 1002.2
20260509203205 60 196 5.0 8.0 0.00 0.00 0.00 43 1002.0
20260509202701 60 172 3.0 3.0 0.00 0.00 0.00 43 1002.3
20260509202155 61 173 3.0 15.0 0.00 0.00 0.00 42 1002.1
20260509201651 62 180 5.0 8.0 0.00 0.00 0.00 40 1001.9
20260509201148 62 215 2.0 9.0 0.00 0.00 0.00 38 1001.6
20260509200644 62 189 2.0 4.0 0.00 0.00 0.00 39 1001.8
20260509200140 60 124 2.0 9.0 0.00 0.00 0.00 39 1002.0
20260509195636 61 178 6.0 10.0 0.00 0.00 0.00 38 1002.1
20260509195131 61 156 7.0 15.0 0.00 0.00 0.00 36 1002.1
20260509194631 62 190 8.0 14.0 0.00 0.00 0.00 35 1002.0
20260509194128 61 141 2.0 15.0 0.00 0.00 0.00 36 1002.1
20260509193624 61 104 5.0 7.0 0.00 0.00 0.00 36 1002.3
20260509193120 62 206 3.0 9.0 0.00 0.00 0.00 36 1002.2
20260509192617 62 110 3.0 13.0 0.00 0.00 0.00 35 1002.3
20260509192112 61 223 7.0 9.0 0.00 0.00 0.00 35 1002.5
20260509191606 61 197 6.0 13.0 0.00 0.00 0.00 36 1002.5
20260509191103 60 178 6.0 13.0 0.00 0.00 0.00 36 1002.6
20260509190600 61 127 2.0 11.0 0.00 0.00 0.00 35 1002.6
20260509190057 61 151 6.0 10.0 0.00 0.00 0.00 35 1002.5
20260509185555 62 156 4.0 7.0 0.00 0.00 0.00 34 1002.7
20260509185050 62 197 0.0 7.0 0.00 0.00 0.00 34 1002.7
20260509184549 61 178 10.0 13.0 0.00 0.00 0.00 34 1002.8
20260509184045 61 160 4.0 10.0 0.00 0.00 0.00 34 1002.8
20260509183540 62 229 1.0 3.0 0.00 0.00 0.00 32 1002.7
20260509183036 61 153 4.0 14.0 0.00 0.00 0.00 32 1002.8
20260509182533 63 97 6.0 8.0 0.00 0.00 0.00 31 1002.8
20260509182030 62 238 2.0 7.0 0.00 0.00 0.00 31 1002.8
20260509181528 61 148 2.0 11.0 0.00 0.00 0.00 32 1002.8
20260509181026 63 212 6.0 16.0 0.00 0.00 0.00 30 1002.8
20260509180521 61 195 4.0 9.0 0.00 0.00 0.00 31 1003.0
20260509180019 62 139 4.0 7.0 0.00 0.00 0.00 31 1003.2
20260509175513 63 186 2.0 8.0 0.00 0.00 0.00 30 1003.3
20260509175011 62 164 4.0 14.0 0.00 0.00 0.00 29 1003.3
20260509174508 61 100 3.0 14.0 0.00 0.00 0.00 30 1003.3
20260509174002 60 169 5.0 11.0 0.00 0.00 0.00 30 1003.7
20260509173457 61 139 7.0 9.0 0.00 0.00 0.00 29 1003.6
20260509172953 61 185 4.0 8.0 0.00 0.00 0.00 30 1003.7
20260509172451 62 186 8.0 13.0 0.00 0.00 0.00 29 1003.9
20260509171946 61 139 3.0 10.0 0.00 0.00 0.00 32 1003.8
20260509171442 60 98 8.0 13.0 0.00 0.00 0.00 31 1003.7
20260509170939 61 158 2.0 6.0 0.00 0.00 0.00 32 1004.0
20260509170434 61 194 2.0 6.0 0.00 0.00 0.00 31 1004.2
20260509165930 62 102 3.0 6.0 0.00 0.00 0.00 31 1004.3
20260509165424 62 192 2.0 7.0 0.00 0.00 0.00 32 1004.4
20260509164920 61 170 6.0 10.0 0.00 0.00 0.00 30 1004.4
20260509164416 61 180 2.0 7.0 0.00 0.00 0.00 31 1004.4
20260509163912 61 185 3.0 7.0 0.00 0.00 0.00 31 1004.7
20260509163410 60 150 3.0 7.0 0.00 0.00 0.00 32 1004.6
20260509162909 61 162 7.0 13.0 0.00 0.00 0.00 31 1004.8
20260509162407 60 170 2.0 4.0 0.00 0.00 0.00 32 1004.7
20260509161903 60 158 5.0 15.0 0.00 0.00 0.00 32 1004.7
20260509161400 60 145 3.0 7.0 0.00 0.00 0.00 32 1004.8
20260509160855 61 168 4.0 6.0 0.00 0.00 0.00 32 1004.9
20260509160351 61 172 4.0 8.0 0.00 0.00 0.00 32 1005.0
20260509155846 59 200 1.0 6.0 0.00 0.00 0.00 32 1005.0
20260509155343 60 198 5.0 11.0 0.00 0.00 0.00 31 1005.2
20260509154840 60 133 6.0 8.0 0.00 0.00 0.00 31 1005.3
20260509154336 58 230 5.0 10.0 0.00 0.00 0.00 32 1005.5
20260509153833 59 160 7.0 11.0 0.00 0.00 0.00 32 1005.6
20260509153330 59 184 3.0 6.0 0.00 0.00 0.00 33 1005.4
20260509152827 57 172 6.0 9.0 0.00 0.00 0.00 34 1005.6
20260509152322 58 151 7.0 16.0 0.00 0.00 0.00 32 1006.0
20260509151821 59 173 7.0 11.0 0.00 0.00 0.00 34 1005.9
20260509151316 58 174 6.0 17.0 0.00 0.00 0.00 33 1006.2
20260509150815 59 172 3.0 4.0 0.00 0.00 0.00 33 1006.1
20260509150312 58 233 4.0 7.0 0.00 0.00 0.00 34 1006.2
20260509145809 57 193 5.0 7.0 0.00 0.00 0.00 34 1006.4
20260509145309 57 160 1.0 7.0 0.00 0.00 0.00 35 1006.2
20260509144806 58 196 4.0 4.0 0.00 0.00 0.00 34 1006.1
20260509144303 58 208 3.0 7.0 0.00 0.00 0.00 35 1005.9
20260509143800 57 142 3.0 8.0 0.00 0.00 0.00 36 1006.4
20260509143257 56 67 0.0 6.0 0.00 0.00 0.00 36 1006.4
20260509142753 56 144 2.0 7.0 0.00 0.00 0.00 36 1006.3
20260509142249 56 163 3.0 8.0 0.00 0.00 0.00 38 1006.4
20260509141745 56 177 7.0 8.0 0.00 0.00 0.00 37 1006.5
20260509141243 55 165 1.0 6.0 0.00 0.00 0.00 41 1006.6
20260509140739 55 169 1.0 7.0 0.00 0.00 0.00 41 1006.6
20260509140236 55 189 6.0 9.0 0.00 0.00 0.00 40 1006.7
20260509135734 54 150 3.0 7.0 0.00 0.00 0.00 40 1006.5
20260509135232 53 188 5.0 7.0 0.00 0.00 0.00 43 1006.5
20260509134728 54 182 5.0 9.0 0.00 0.00 0.00 42 1006.5
20260509134226 53 134 6.0 10.0 0.00 0.00 0.00 43 1006.5
20260509133723 53 91 2.0 8.0 0.00 0.00 0.00 43 1006.9
20260509133219 54 213 1.0 2.0 0.00 0.00 0.00 43 1006.8
20260509132718 53 143 0.0 2.0 0.00 0.00 0.00 44 1006.7
20260509132216 53 176 3.0 6.0 0.00 0.00 0.00 42 1006.8
20260509131712 53 177 3.0 4.0 0.00 0.00 0.00 43 1007.2
20260509131209 51 150 6.0 7.0 0.00 0.00 0.00 44 1006.8
20260509130705 51 202 4.0 6.0 0.00 0.00 0.00 44 1007.2
20260509130201 52 164 5.0 6.0 0.00 0.00 0.00 43 1006.9
20260509125658 51 170 2.0 3.0 0.00 0.00 0.00 44 1007.2
20260509125154 51 139 4.0 7.0 0.00 0.00 0.00 45 1007.3
20260509124651 51 208 1.0 3.0 0.00 0.00 0.00 47 1007.2
20260509124148 50 186 2.0 3.0 0.00 0.00 0.00 48 1006.8
20260509123646 49 179 1.0 4.0 0.00 0.00 0.00 51 1007.1
20260509123143 49 171 6.0 7.0 0.00 0.00 0.00 51 1007.2
20260509122638 49 112 2.0 3.0 0.00 0.00 0.00 52 1007.2
20260509122136 48 181 3.0 8.0 0.00 0.00 0.00 54 1007.4
20260509121632 48 171 2.0 6.0 0.00 0.00 0.00 55 1007.5
20260509121130 47 167 0.0 2.0 0.00 0.00 0.00 57 1007.4
20260509120628 47 166 1.0 6.0 0.00 0.00 0.00 58 1007.4
20260509120126 47 151 2.0 6.0 0.00 0.00 0.00 58 1007.7
20260509115623 46 194 3.0 4.0 0.00 0.00 0.00 59 1007.5
20260509115121 46 156 0.0 1.0 0.00 0.00 0.00 61 1007.6
20260509114618 44 179 0.0 1.0 0.00 0.00 0.00 62 1007.6
20260509114117 43 134 0.0 2.0 0.00 0.00 0.00 65 1007.4
20260509113615 42 89 0.0 1.0 0.00 0.00 0.00 66 1007.5
20260509113112 42 80 0.0 0.0 0.00 0.00 0.00 68 1007.7
20260509112608 42 90 0.0 0.0 0.00 0.00 0.00 67 1007.7
20260509112106 43 76 0.0 0.0 0.00 0.00 0.00 66 1007.7
20260509111603 43 115 0.0 0.0 0.00 0.00 0.00 64 1007.6
20260509111100 42 99 0.0 1.0 0.00 0.00 0.00 65 1007.6
20260509110557 42 119 0.0 0.0 0.00 0.00 0.00 66 1007.7
20260509110054 41 116 0.0 0.0 0.00 0.00 0.00 66 1007.5
20260509105552 40 119 0.0 0.0 0.00 0.00 0.00 67 1007.5
20260509105049 40 132 0.0 1.0 0.00 0.00 0.00 67 1007.5
20260509104546 40 158 0.0 1.0 0.00 0.00 0.00 68 1007.4
20260509104043 39 161 0.0 1.0 0.00 0.00 0.00 69 1007.3
20260509103541 39 150 0.0 1.0 0.00 0.00 0.00 69 1007.4
20260509103039 39 140 0.0 0.0 0.00 0.00 0.00 70 1007.2
20260509102536 38 156 0.0 1.0 0.00 0.00 0.00 70 1007.6
20260509102033 39 157 0.0 1.0 0.00 0.00 0.00 70 1007.6
20260509101529 38 167 0.0 1.0 0.00 0.00 0.00 70 1007.4
20260509101026 39 153 0.0 1.0 0.00 0.00 0.00 70 1007.2
20260509100523 38 127 0.0 0.0 0.00 0.00 0.00 71 1007.3
20260509100020 38 156 0.0 0.0 0.00 0.00 0.00 71 1007.4
20260509095517 38 157 0.0 1.0 0.00 0.00 0.00 70 1007.2
20260509095014 39 171 0.0 1.0 0.00 0.00 0.00 70 1007.3
20260509094510 39 161 0.0 1.0 0.00 0.00 0.00 69 1007.1
20260509094008 40 169 0.0 2.0 0.00 0.00 0.00 67 1007.4
20260509093506 39 170 0.0 0.0 0.00 0.00 0.00 67 1007.3
20260509093003 39 172 0.0 0.0 0.00 0.00 0.00 67 1007.1
20260509092501 39 157 0.0 1.0 0.00 0.00 0.00 67 1007.3
20260509091959 39 178 0.0 1.0 0.00 0.00 0.00 67 1007.4
20260509091456 39 169 0.0 0.0 0.00 0.00 0.00 67 1007.4
20260509090953 39 176 0.0 1.0 0.00 0.00 0.00 67 1007.4
20260509090450 39 181 1.0 1.0 0.00 0.00 0.00 67 1007.2
20260509085948 40 153 0.0 0.0 0.00 0.00 0.00 67 1007.6
20260509085444 40 170 0.0 1.0 0.00 0.00 0.00 66 1007.5
20260509084940 40 161 0.0 1.0 0.00 0.00 0.00 65 1007.5
20260509084438 40 166 0.0 1.0 0.00 0.00 0.00 65 1007.5
20260509083935 40 176 0.0 3.0 0.00 0.00 0.00 65 1007.5
20260509083432 40 155 1.0 3.0 0.00 0.00 0.00 65 1007.5